Regional Weather Roundup
Issued by NWS

Home | Current Version | Previous Version | Graphics & Text | Print | Product List | Glossary On
Versions: 1 2 3 4 5 6 7 8 9 10 11 12 13 14 15 16 17 18 19 20 21 22 23 24 25 26 27 28 29 30 31 32 33 34 35 36 37 38 39 40 41 42 43 44 45 46 47 48 49 50
000
ASUS43 KLSX 242210
RWRMO

WEATHER SUMMARY FOR MISSOURI
NATIONAL WEATHER SERVICE SPRINGFIELD MO
500 PM CDT SAT SEP 24 2016

NOTE: "FAIR" INDICATES FEW OR NO CLOUDS BELOW 12,000 FEET WITH NO
       SIGNIFICANT WEATHER AND/OR OBSTRUCTIONS TO VISIBILITY.
       CURRENT SKY AND/OR WEATHER CONDITIONS ARE NOT AVAILABLE FOR
       CHILLICOTHE AND FARMINGTON.

MOZ001>031-035>038-043-044-053-054-242300-
...NORTHERN AND WESTERN MISSOURI...

CITY           SKY/WX    TMP DP  RH WIND       PRES   REMARKS
KANSAS CTY INT MOSUNNY   86  68  54 S16       29.93F
KANSAS C DTWN  MOSUNNY   89  68  49 S17G23    29.92S HX  93
LEE`S SUMMIT   MOSUNNY   88  70  55 SE15      29.96R HX  93
ST JOSEPH      MOSUNNY   86  69  56 S13G22    29.91F HX  90
CHILLICOTHE      N/A     86  69  56 S7        29.97R HX  90
KIRKSVILLE     MOSUNNY   86  67  52 SE15      30.00F

$$
MOZ066>068-077>081-088>096-101>105-242300-
...SOUTHWEST MISSOURI...

CITY           SKY/WX    TMP DP  RH WIND       PRES   REMARKS
SPRINGFIELD    MOSUNNY   86  64  47 S9        29.99F
JOPLIN         MOSUNNY   86  69  56 S16       29.97F HX  90
BRANSON        MOSUNNY   88  66  48 SE10      30.01F HX  90

$$
MOZ032>034-039>042-045>050-055>058-069>072-242300-
...CENTRAL MISSOURI...

CITY           SKY/WX    TMP DP  RH WIND       PRES   REMARKS
COLUMBIA       SUNNY     87  69  54 SE12      30.01F HX  91
JEFFERSON CITY PTSUNNY   88  69  53 SE8       29.98F HX  92
ROLLA          SUNNY     86  68  54 SE9       30.02F
SEDALIA        CLOUDY    85  72  65 SE7       29.99F HX  91
WHITEMAN AFB   PTSUNNY   86  66  50 S9        29.96F
OSAGE BEACH    SUNNY     86  72  62 SE5       30.00F HX  92

$$
MOZ051-052-059>065-242300-
...EAST CENTRAL MISSOURI...

CITY           SKY/WX    TMP DP  RH WIND       PRES   REMARKS
ST LOUIS INTL  MOSUNNY   90  61  37 S5        30.03F HX  90
SPIRIT OF STL  SUNNY     88  67  49 VRB5      30.01F HX  91
ST CHARLES     SUNNY     88  66  48 SE8       30.00F HX  90

$$
MOZ072>076-082>087-097>100-106>115-242300-
...SOUTH CENTRAL AND SOUTHEAST MISSOURI...

CITY           SKY/WX    TMP DP  RH WIND       PRES   REMARKS
CAPE GIRARDEAU MOSUNNY   88  68  51 E6        30.02F HX  91
FARMINGTON     SUNNY     87  68  52 S6        30.06F HX  90
WEST PLAINS    SUNNY     87  64  46 SE7       30.05F

$$




USA.gov is the U.S. government's official web portal to all federal, state and local government web resources and services.